Weather History for Berlin, NH

Change the Weather History Date:

Tuesday, December 7, 2010

  Actual Average Record
Temperature  
Mean Temperature 20 °F -  
Max Temperature 23 °F 31 °F 66 °F (1998)
Min Temperature 17 °F 14 °F -4 °F (2002)
Degree Days  
Heating Degree Days 45    
Moisture  
Dew Point 13 °F    
Average Humidity 73    
Maximum Humidity 86    
Minimum Humidity 58    
Precipitation  
Precipitation 0.00 in - - ()
Sea Level Pressure  
Sea Level Pressure 29.29 in    
Wind  
Wind Speed 3 mph (West)    
Max Wind Speed 10 mph    
Max Gust Speed 24 mph    
Visibility 7 miles    
Events Snow    
Averages and records for this station are not official NWS values.
T = Trace of Precipitation, MM = Missing Value Source: NWS Daily Summary

Daily Weather History Graph

Daily Weather History Graph

Search for Another Location

Airport:

Trip Planner

Search our weather history database for the weather conditions in past years. The results will help you decide how hot, cold, wet, or windy it might be!

Date:

Astronomy

Dec. 07, 2010 Rise Set
Actual Time 7:07 AM EST 4:04 PM EST
Civil Twilight 6:34 AM EST 4:37 PM EST
Nautical Twilight 5:57 AM EST 5:14 PM EST
Astronomical Twilight 5:22 AM EST 5:49 PM EST
Moon 8:52 AM EST (12/7) 5:59 PM EST (12/7)
Length of Visible Light 10h 03m
Length of Day
8h 57m
Waxing Crescent, 4% of the Moon is Illuminated
Dec 7
Waxing Crescent
Dec 13
First Quarter
Dec 21
Full
Dec 27
Last Quarter
Jan 4
New

Hourly Weather History & Observations

Time (EST) Temp. Windchill Dew Point Humidity Pressure Visibility Wind Dir Wind Speed Gust Speed Precip Events Conditions
12:09 AM 21.2 °F 14.9 °F 12.2 °F 68% 29.09 in 8.0 mi West 4.6 mph - 0.00 in   Overcast
12:52 AM 21.0 °F 16.2 °F 12.9 °F 71% 29.16 in 10.0 mi Variable 3.5 mph - 0.00 in   Overcast
1:52 AM 21.0 °F - 12.9 °F 71% 29.17 in 9.0 mi Calm Calm - 0.00 in   Overcast
2:02 AM 21.2 °F 16.4 °F 12.2 °F 68% 29.12 in 10.0 mi West 3.5 mph - N/A   Overcast
2:52 AM 19.9 °F 13.4 °F 14.0 °F 78% 29.18 in 4.0 mi WSW 4.6 mph - 0.00 in Snow Light Snow
3:19 AM 19.4 °F - 15.8 °F 86% 29.13 in 3.0 mi Calm Calm - 0.00 in Snow Light Snow
3:23 AM 19.4 °F - 15.8 °F 86% 29.13 in 2.5 mi Calm Calm - 0.00 in Snow Light Snow
3:43 AM 19.4 °F - 14.0 °F 80% 29.13 in 3.0 mi Calm Calm - 0.00 in Snow Light Snow
3:52 AM 19.9 °F - 15.1 °F 81% 29.19 in 2.5 mi Calm Calm - 0.00 in Snow Light Snow
4:05 AM 19.4 °F - 15.8 °F 86% 29.13 in 1.8 mi Calm Calm - 0.00 in Snow Light Snow
4:13 AM 19.4 °F 14.3 °F 15.8 °F 86% 29.13 in 2.5 mi SSW 3.5 mph - 0.00 in Snow Light Snow
4:23 AM 19.4 °F - 15.8 °F 86% 29.14 in 3.0 mi Calm Calm - 0.00 in Snow Light Snow
4:41 AM 19.4 °F - 15.8 °F 86% 29.14 in 6.0 mi Calm Calm - 0.00 in Snow Light Snow
4:52 AM 19.9 °F - 15.1 °F 81% 29.20 in 9.0 mi Calm Calm - 0.00 in   Overcast
5:34 AM 19.4 °F 12.8 °F 12.2 °F 74% 29.16 in 10.0 mi Variable 4.6 mph - N/A   Overcast
5:42 AM 19.4 °F - 12.2 °F 74% 29.16 in 10.0 mi Calm Calm - N/A   Overcast
5:52 AM 19.9 °F 14.9 °F 12.9 °F 74% 29.21 in 10.0 mi SW 3.5 mph - N/A   Overcast
6:52 AM 19.9 °F 13.4 °F 12.9 °F 74% 29.22 in 10.0 mi SW 4.6 mph - N/A   Overcast
7:52 AM 19.9 °F 13.4 °F 12.0 °F 71% 29.24 in 10.0 mi WSW 4.6 mph - N/A   Overcast
8:52 AM 19.9 °F 14.9 °F 12.9 °F 74% 29.27 in 10.0 mi SW 3.5 mph - N/A   Overcast
9:52 AM 21.9 °F 15.7 °F 12.0 °F 66% 29.28 in 10.0 mi Variable 4.6 mph - N/A   Overcast
10:52 AM 21.9 °F 13.4 °F 12.9 °F 68% 29.29 in 10.0 mi WSW 6.9 mph - N/A   Overcast
11:39 AM 21.2 °F 14.9 °F 12.2 °F 68% 29.24 in 4.0 mi WSW 4.6 mph - 0.00 in Snow Light Snow
11:52 AM 21.9 °F 15.7 °F 12.9 °F 68% 29.29 in 4.0 mi Variable 4.6 mph - 0.00 in Snow Light Snow
12:15 PM 21.2 °F 14.9 °F 14.0 °F 74% 29.24 in 2.5 mi Variable 4.6 mph - 0.00 in Snow Light Snow
12:37 PM 21.2 °F 14.9 °F 14.0 °F 74% 29.24 in 3.0 mi West 4.6 mph - 0.00 in Snow Light Snow
12:52 PM 21.9 °F 12.5 °F 10.9 °F 63% 29.30 in 9.0 mi West 8.1 mph - 0.00 in   Overcast
1:52 PM 23.0 °F 12.4 °F 10.0 °F 58% 29.31 in 10.0 mi WNW 10.4 mph 24.2 mph N/A   Overcast
2:52 PM 21.9 °F 12.5 °F 10.9 °F 63% 29.35 in 10.0 mi West 8.1 mph 18.4 mph N/A   Overcast
3:52 PM 21.9 °F 13.4 °F 12.0 °F 66% 29.37 in 10.0 mi Variable 6.9 mph - N/A   Overcast
4:52 PM 21.0 °F 9.9 °F 10.9 °F 65% 29.40 in 10.0 mi West 10.4 mph 16.1 mph N/A   Overcast
5:52 PM 21.0 °F 13.4 °F 12.0 °F 68% 29.42 in 10.0 mi Variable 5.8 mph - N/A   Overcast
6:52 PM 19.9 °F 13.4 °F 12.0 °F 71% 29.45 in 10.0 mi Variable 4.6 mph - 0.00 in   Overcast
7:50 PM 19.4 °F 12.8 °F 10.4 °F 68% 29.41 in 10.0 mi West 4.6 mph - N/A   Overcast
7:52 PM 19.9 °F 13.4 °F 10.9 °F 68% 29.47 in 10.0 mi Variable 4.6 mph - N/A   Overcast
8:34 PM 19.4 °F 12.8 °F 10.4 °F 68% 29.42 in 7.0 mi Variable 4.6 mph - 0.00 in Snow Light Snow
8:41 PM 19.4 °F 7.9 °F 10.4 °F 68% 29.42 in 4.0 mi NW 10.4 mph 16.1 mph 0.00 in Snow Light Snow
8:52 PM 19.0 °F 13.9 °F 12.0 °F 74% 29.48 in 3.0 mi Variable 3.5 mph - 0.00 in Snow Light Snow
9:06 PM 19.4 °F 12.8 °F 12.2 °F 74% 29.42 in 3.0 mi WNW 4.6 mph - 0.00 in Snow Light Snow
9:38 PM 19.4 °F - 12.2 °F 74% 29.43 in 2.5 mi Calm Calm - 0.00 in Snow Light Snow
9:52 PM 19.0 °F 13.9 °F 12.9 °F 77% 29.50 in 2.0 mi Variable 3.5 mph - 0.00 in Snow Light Snow
10:05 PM 19.4 °F 11.5 °F 12.2 °F 74% 29.44 in 5.0 mi WNW 5.8 mph - 0.00 in Snow Light Snow
10:13 PM 19.4 °F - 12.2 °F 74% 29.45 in 7.0 mi Calm Calm - 0.00 in Snow Light Snow
11:13 PM 17.6 °F 12.3 °F 10.4 °F 73% 29.47 in 10.0 mi Variable 3.5 mph - 0.00 in   Overcast
11:20 PM 17.6 °F 12.3 °F 10.4 °F 73% 29.47 in 8.0 mi Variable 3.5 mph - 0.00 in Snow Light Snow
11:31 PM 17.6 °F 12.3 °F 10.4 °F 73% 29.47 in 9.0 mi Variable 3.5 mph - 0.00 in   Overcast
11:52 PM 19.0 °F 8.2 °F 10.0 °F 68% 29.53 in 10.0 mi West 9.2 mph - 0.00 in   Overcast